Weather History for Charlevoix, MI

Change the Weather History Date:

Friday, April 4, 2014

  Actual Average Record
Temperature  
Mean Temperature 32 °F -  
Max Temperature 37 °F 46 °F 51 °F (2005)
Min Temperature 26 °F 30 °F 19 °F (2003)
Degree Days  
Heating Degree Days 33    
Moisture  
Dew Point 30 °F    
Average Humidity 85    
Maximum Humidity 100    
Minimum Humidity 60    
Precipitation  
Precipitation 0.00 in - - ()
Sea Level Pressure  
Sea Level Pressure 29.59 in    
Wind  
Wind Speed 11 mph (ENE)    
Max Wind Speed 21 mph    
Max Gust Speed 28 mph    
Visibility 6 miles    
Events Rain , Snow    
Averages and records for this station are not official NWS values.
T = Trace of Precipitation, MM = Missing Value Source: NWS Daily Summary

Daily Weather History Graph

Daily Weather History Graph

Search for Another Location

Airport:

Trip Planner

Search our weather history database for the weather conditions in past years. The results will help you decide how hot, cold, wet, or windy it might be!

Date:

Astronomy

Apr. 04, 2014 Rise Set
Actual Time 7:15 AM EDT 8:12 PM EDT
Civil Twilight 6:45 AM EDT 8:43 PM EDT
Nautical Twilight 6:10 AM EDT 9:19 PM EDT
Astronomical Twilight 5:32 AM EDT 9:56 PM EDT
Moon 10:22 AM EDT (4/4) 12:40 AM EDT (4/4)
Length of Visible Light 13h 57m
Length of Day
12h 57m
Waxing Crescent, 25% of the Moon is Illuminated
Apr 4
Waxing Crescent
Apr 7
First Quarter
Apr 15
Full
Apr 22
Last Quarter
Apr 29
New

Hourly Weather History & Observations

Time (EDT) Temp. Windchill Dew Point Humidity Pressure Visibility Wind Dir Wind Speed Gust Speed Precip Events Conditions
12:15 AM 35.8 °F 28.3 °F 25.3 °F 66% 29.92 in 10.0 mi East 10.4 mph - N/A   Overcast
12:34 AM 35.8 °F 26.9 °F 25.2 °F 65% 29.90 in 10.0 mi East 13.8 mph 18.4 mph N/A   Overcast
12:55 AM 36.1 °F 28.2 °F 24.8 °F 63% 29.89 in 10.0 mi ESE 11.5 mph 17.3 mph N/A   Overcast
1:15 AM 36.5 °F 28.7 °F 25.0 °F 63% 29.87 in 10.0 mi East 11.5 mph 17.3 mph N/A   Overcast
1:34 AM 36.7 °F 28.4 °F 25.2 °F 63% 29.86 in 10.0 mi East 12.7 mph 18.4 mph N/A   Overcast
1:55 AM 36.7 °F 28.0 °F 25.2 °F 63% 29.83 in 10.0 mi East 13.8 mph - N/A   Overcast
2:15 AM 37.0 °F 29.3 °F 25.0 °F 62% 29.82 in 10.0 mi East 11.5 mph - N/A   Overcast
2:34 AM 37.4 °F 29.8 °F 25.3 °F 62% 29.80 in 10.0 mi East 11.5 mph 17.3 mph N/A   Overcast
2:55 AM 37.6 °F 29.1 °F 24.8 °F 60% 29.78 in 10.0 mi East 13.8 mph 19.6 mph N/A   Overcast
3:15 AM 37.6 °F 28.4 °F 24.8 °F 60% 29.77 in 10.0 mi East 16.1 mph 21.9 mph N/A   Overcast
3:35 AM 37.4 °F 28.2 °F 25.2 °F 61% 29.74 in 10.0 mi East 16.1 mph 24.2 mph N/A   Overcast
3:55 AM 37.2 °F 29.1 °F 25.5 °F 63% 29.75 in 10.0 mi ESE 12.7 mph 18.4 mph N/A   Overcast
4:15 AM 36.9 °F 28.2 °F 26.1 °F 65% 29.73 in 10.0 mi East 13.8 mph 17.3 mph N/A   Overcast
4:35 AM 36.9 °F 28.2 °F 26.4 °F 66% 29.73 in 10.0 mi ESE 13.8 mph 18.4 mph N/A   Overcast
4:55 AM 37.0 °F 28.9 °F 26.1 °F 65% 29.72 in 10.0 mi ESE 12.7 mph - N/A   Overcast
5:15 AM 36.9 °F 28.2 °F 26.1 °F 65% 29.70 in 10.0 mi East 13.8 mph 18.4 mph N/A   Overcast
5:35 AM 36.5 °F 28.2 °F 26.6 °F 67% 29.70 in 10.0 mi East 12.7 mph - N/A   Overcast
5:55 AM 36.9 °F 28.7 °F 26.2 °F 65% 29.69 in 10.0 mi ESE 12.7 mph 18.4 mph N/A   Overcast
6:14 AM 36.7 °F 29.9 °F 26.6 °F 67% 29.69 in 10.0 mi ESE 9.2 mph - N/A   Overcast
6:35 AM 36.5 °F 28.2 °F 26.6 °F 67% 29.65 in 10.0 mi ESE 12.7 mph 18.4 mph N/A   Overcast
6:54 AM 36.0 °F 28.0 °F 27.1 °F 70% 29.64 in 10.0 mi ESE 11.5 mph 17.3 mph N/A   Overcast
7:15 AM 35.8 °F 28.8 °F 27.5 °F 72% 29.64 in 10.0 mi ESE 9.2 mph - N/A   Overcast
7:34 AM 36.0 °F 27.1 °F 27.5 °F 71% 29.61 in 10.0 mi East 13.8 mph - N/A   Overcast
7:55 AM 35.6 °F 27.5 °F 28.2 °F 75% 29.60 in 10.0 mi East 11.5 mph - N/A   Overcast
8:15 AM 35.6 °F 26.6 °F 28.2 °F 75% 29.58 in 10.0 mi East 13.8 mph - N/A   Overcast
8:35 AM 34.9 °F 25.7 °F 28.9 °F 79% 29.57 in 10.0 mi ESE 13.8 mph 19.6 mph N/A   Overcast
8:54 AM 34.9 °F 29.0 °F 29.1 °F 79% 29.58 in 2.5 mi ESE 6.9 mph - N/A Snow Light Snow
9:15 AM 34.2 °F 26.8 °F 30.6 °F 87% 29.56 in 7.0 mi East 9.2 mph - N/A   Overcast
9:35 AM 34.0 °F 25.5 °F 30.9 °F 89% 29.55 in 10.0 mi East 11.5 mph - N/A   Overcast
9:54 AM 34.0 °F 25.5 °F 31.1 °F 89% 29.52 in 10.0 mi East 11.5 mph - N/A   Overcast
10:15 AM 34.2 °F 28.2 °F 30.9 °F 88% 29.52 in 10.0 mi ESE 6.9 mph - N/A Rain Light Rain
10:35 AM 34.0 °F - 31.5 °F 90% 29.53 in 2.0 mi Calm Calm - N/A Rain Light Rain
10:54 AM 33.8 °F 29.6 °F 32.0 °F 93% 29.53 in 1.8 mi NE 4.6 mph - N/A Rain Light Rain
11:15 AM 33.8 °F 30.8 °F 32.4 °F 94% 29.54 in 2.0 mi ENE 3.5 mph - N/A   Overcast
11:35 AM 33.8 °F 30.8 °F 32.5 °F 95% 29.53 in 2.0 mi NE 3.5 mph - N/A   Overcast
11:55 AM 33.8 °F 30.8 °F 32.9 °F 96% 29.54 in 1.8 mi NE 3.5 mph - N/A Snow Light Snow
12:15 PM 33.3 °F 28.9 °F 32.5 °F 97% 29.52 in 1.5 mi NE 4.6 mph - N/A Snow Light Snow
12:35 PM 33.8 °F 29.6 °F 32.9 °F 96% 29.54 in 5.0 mi ENE 4.6 mph - N/A Snow Light Snow
12:55 PM 33.4 °F 28.1 °F 32.9 °F 98% 29.52 in 5.0 mi ENE 5.8 mph - N/A Snow Light Snow
1:15 PM 33.8 °F 25.8 °F 32.9 °F 96% 29.48 in 4.0 mi ENE 10.4 mph - N/A   Overcast
1:35 PM 33.8 °F 25.8 °F 33.1 °F 97% 29.45 in 5.0 mi ENE 10.4 mph - N/A   Overcast
1:55 PM 33.8 °F 25.3 °F 33.3 °F 98% 29.43 in 7.0 mi East 11.5 mph - N/A Rain Light Rain
2:15 PM 34.0 °F 25.5 °F 33.3 °F 97% 29.43 in 7.0 mi East 11.5 mph - N/A Rain Light Rain
2:55 PM 34.2 °F 24.8 °F 33.4 °F 97% 29.34 in 5.0 mi East 13.8 mph - N/A Rain Light Rain
3:15 PM 34.2 °F 26.8 °F 33.3 °F 97% 29.36 in 10.0 mi East 9.2 mph - N/A   Overcast
3:34 PM 34.7 °F 28.8 °F 33.8 °F 97% 29.40 in 10.0 mi SW 6.9 mph - N/A   Overcast
3:55 PM 34.9 °F 32.0 °F 33.8 °F 96% 29.42 in 10.0 mi SSW 3.5 mph - N/A   Overcast
4:14 PM 35.4 °F - 34.3 °F 96% 29.41 in 10.0 mi Calm Calm - N/A   Overcast
4:35 PM 35.1 °F 30.1 °F 33.8 °F 95% 29.40 in 10.0 mi North 5.8 mph - N/A Snow Light Snow
4:55 PM 34.0 °F 31.0 °F 33.1 °F 96% 29.41 in 10.0 mi NNW 3.5 mph - N/A Rain Light Rain
5:14 PM 33.8 °F 30.8 °F 32.9 °F 96% 29.42 in 7.0 mi NNW 3.5 mph - N/A   Overcast
5:35 PM 33.8 °F 28.6 °F 32.9 °F 96% 29.42 in 5.0 mi NW 5.8 mph - N/A Snow Light Snow
5:55 PM 33.3 °F 26.4 °F 32.9 °F 99% 29.43 in 4.0 mi NW 8.1 mph - N/A   Overcast
6:14 PM 32.9 °F 25.9 °F 32.4 °F 98% 29.43 in 1.2 mi NNW 8.1 mph - N/A Snow Light Snow
6:35 PM 33.1 °F 23.9 °F 32.9 °F 99% 29.44 in 0.8 mi NNW 12.7 mph - N/A Snow Light Snow
6:55 PM 32.9 °F 22.8 °F 32.4 °F 98% 29.47 in 0.5 mi NW 15.0 mph - N/A Snow Snow
7:15 PM 32.9 °F 22.8 °F 32.4 °F 98% 29.48 in 0.5 mi NNW 15.0 mph 23.0 mph N/A Snow Light Snow
7:35 PM 32.9 °F 22.8 °F 32.5 °F 99% 29.50 in 0.8 mi NW 15.0 mph 19.6 mph N/A Snow Light Snow
7:55 PM 32.9 °F 23.2 °F 32.5 °F 99% 29.51 in 0.5 mi WNW 13.8 mph 20.7 mph N/A Snow Snow
8:15 PM 32.4 °F 22.5 °F 32.0 °F 99% 29.52 in 1.2 mi NW 13.8 mph 21.9 mph N/A Snow Light Snow
8:35 PM 32.0 °F 24.2 °F 32.0 °F 100% 29.54 in 3.0 mi NW 9.2 mph 20.7 mph N/A Snow Light Snow
8:54 PM 32.0 °F 22.5 °F 32.0 °F 100% 29.55 in 2.5 mi NW 12.7 mph 18.4 mph N/A Snow Light Snow
9:15 PM 31.6 °F 20.0 °F 31.1 °F 98% 29.57 in 2.0 mi NW 18.4 mph 25.3 mph N/A Snow Light Snow
9:35 PM 31.5 °F 20.1 °F 30.7 °F 97% 29.60 in 1.5 mi NW 17.3 mph 21.9 mph N/A Snow Light Snow
9:54 PM 31.1 °F 20.5 °F 30.4 °F 97% 29.61 in 2.5 mi NW 15.0 mph 24.2 mph N/A Snow Light Snow
10:15 PM 30.7 °F 18.5 °F 30.0 °F 97% 29.62 in 2.0 mi NW 19.6 mph 27.6 mph N/A Snow Light Snow
10:35 PM 29.3 °F 17.7 °F 28.4 °F 96% 29.64 in 2.5 mi WNW 16.1 mph 26.5 mph N/A Snow Light Snow
10:54 PM 28.2 °F 15.2 °F 27.0 °F 95% 29.66 in 2.5 mi NW 19.6 mph 26.5 mph N/A Snow Light Snow
11:15 PM 27.5 °F 15.9 °F 26.2 °F 95% 29.68 in 2.5 mi NW 15.0 mph 25.3 mph N/A Snow Light Snow
11:35 PM 27.0 °F 13.2 °F 25.5 °F 94% 29.70 in 3.0 mi NW 20.7 mph 26.5 mph N/A Snow Light Snow
11:55 PM 26.6 °F 13.1 °F 24.4 °F 92% 29.72 in 4.0 mi NW 19.6 mph 26.5 mph N/A Snow Light Snow